Port Hardy, British Columbia

9:31 AM PDT on August 30, 2016 (GMT -0700)
Port Hardy

Weather History for CYZT - April, 2014

Change the Weather History Date:

Tuesday, April 1, 2014

  Actual Average Record
Temperature  
Mean Temperature 41 °F -  
Max Temperature 54 °F 51 °F 56 °F (2013)
Min Temperature 28 °F 37 °F 28 °F (2014)
Degree Days  
Heating Degree Days 24    
Moisture  
Dew Point 34 °F    
Average Humidity 80    
Maximum Humidity 100    
Minimum Humidity 45    
Precipitation  
Precipitation 0.00 in 0.16 in - ()
Sea Level Pressure  
Sea Level Pressure 29.88 in    
Wind  
Wind Speed 4 mph ()    
Max Wind Speed 17 mph    
Max Gust Speed 25 mph    
Visibility 18.0 miles    
Events      
Averages and records for this station are not official NWS values.
T = Trace of Precipitation, MM = Missing Value Source: Averaged Metar Reports

Daily Weather History Graph

Daily Weather History Graph

Search for Another Location

Airport or City:

Trip Planner

Search our weather history database for the weather conditions in past years. The results will help you decide how hot, cold, wet, or windy it might be!

Date:

Astronomy

Apr. 01, 2014 Rise Set
Actual Time 7:05 AM PDT 8:02 PM PDT
Civil Twilight 6:31 AM PDT 8:35 PM PDT
Nautical Twilight 5:51 AM PDT 9:15 PM PDT
Astronomical Twilight 5:09 AM PDT 9:58 PM PDT
Moon 7:59 AM PDT (4/1) 10:47 PM PDT (4/1)
Length of Visible Light 14h 03m
Length of Day
12h 57m
Waxing Crescent, 5% of the Moon is Illuminated
Apr 1
Waxing Crescent
Apr 7
First Quarter
Apr 15
Full
Apr 22
Last Quarter
Apr 28
New

Hourly Weather History & Observations

Time (PDT) Temp. Windchill Dew Point Humidity Pressure Visibility Wind Dir Wind Speed Gust Speed Precip Events Conditions
12:00 AM 33.8 °F - 32.0 °F 93% 29.83 in 15.0 mi South 2.3 mph - N/A   Clear
1:00 AM 33.8 °F 30.8 °F 32.0 °F 93% 29.83 in 15.0 mi West 3.5 mph - N/A   Clear
2:00 AM 32.0 °F 28.7 °F 30.2 °F 93% 29.84 in 15.0 mi SW 3.5 mph - N/A   Clear
3:00 AM 32.0 °F 28.7 °F 32.0 °F 100% 29.84 in 15.0 mi SW 3.5 mph - N/A   Clear
4:00 AM 30.2 °F - 30.2 °F 100% 29.84 in 15.0 mi SW 2.3 mph - N/A   Clear
5:00 AM 31 °F - 30 °F 96% 29.84 in 15 mi SSW 3.5 mph - -  
5:00 AM 30.2 °F 26.7 °F 30.2 °F 100% 29.84 in 15.0 mi SSW 3.5 mph - N/A   Clear
6:00 AM 30.2 °F - 30.2 °F 100% 29.84 in 20.0 mi SSW 2.3 mph - N/A   Clear
7:00 AM 30.2 °F 26.7 °F 28.4 °F 93% 29.85 in 20.0 mi SW 3.5 mph - N/A   Clear
8:00 AM 33.8 °F 28.6 °F 33.8 °F 100% 29.86 in 20.0 mi West 5.8 mph - N/A   Clear
9:00 AM 41.0 °F - 37.4 °F 87% 29.87 in 20.0 mi Variable 2.3 mph - N/A   Clear
10:00 AM 42.8 °F 41.1 °F 37.4 °F 81% 29.88 in 20.0 mi NE 3.5 mph - N/A   Clear
11:00 AM 44 °F - 38 °F 71% 29.89 in 19 mi NNE 3.5 mph - -  
11:00 AM 44.6 °F 42.2 °F 37.4 °F 76% 29.89 in 20.0 mi NNE 4.6 mph - N/A   Clear
12:00 PM 46.4 °F 44.3 °F 39.2 °F 76% 29.89 in 20.0 mi ENE 4.6 mph - N/A   Clear
1:00 PM 46.4 °F 43.5 °F 39.2 °F 76% 29.90 in 20.0 mi NNE 5.8 mph - N/A   Partly Cloudy
2:00 PM 50.0 °F - 41.0 °F 71% 29.89 in 20.0 mi NE 8.1 mph - N/A   Partly Cloudy
3:00 PM 50.0 °F - 42.8 °F 76% 29.89 in 20.0 mi NNE 6.9 mph - N/A   Partly Cloudy
4:00 PM 51.8 °F - 39.2 °F 62% 29.90 in 20.0 mi North 12.7 mph - N/A   Partly Cloudy
5:00 PM 53 °F - 38 °F 45% 29.89 in 19 mi NNW 17.3 mph - -   Scattered Clouds
5:00 PM 51.8 °F - 37.4 °F 58% 29.89 in 20.0 mi NW 16.1 mph 25.3 mph N/A   Partly Cloudy
6:00 PM 51.8 °F - 35.6 °F 54% 29.91 in 20.0 mi NNW 15.0 mph - N/A   Scattered Clouds
7:00 PM 50.0 °F - 32.0 °F 50% 29.91 in 20.0 mi NW 11.5 mph 17.3 mph N/A   Scattered Clouds
8:00 PM 46.4 °F 43.5 °F 32.0 °F 57% 29.91 in 20.0 mi WNW 5.8 mph - N/A   Partly Cloudy
9:00 PM 39.2 °F - 33.8 °F 81% 29.93 in 15.0 mi SSW 2.3 mph - N/A   Partly Cloudy
10:00 PM 37.4 °F 33.8 °F 32.0 °F 81% 29.94 in 15.0 mi SSW 4.6 mph - N/A   Scattered Clouds
11:00 PM 36 °F - 32 °F 79% 29.94 in 15 mi SW 3.5 mph - -   Partly Cloudy
11:00 PM 37.4 °F 33.8 °F 32.0 °F 81% 29.94 in 15.0 mi SW 4.6 mph - N/A   Scattered Clouds